Stevensville, MD

8:00 AM EDT on September 25, 2017 (GMT -0400)
Stevensville

Weather History for KW29 - November, 2012

Change the Weather History Date:

Sunday, November 18, 2012

  Actual Average (KESN) Record (KESN)
Temperature  
Mean Temperature 46 °F -  
Max Temperature 51 °F 59 °F 71 °F (1953)
Min Temperature 41 °F 35 °F 23 °F (1959)
Degree Days  
Heating Degree Days 19    
Moisture  
Dew Point 37 °F    
Average Humidity 72    
Maximum Humidity 87    
Minimum Humidity 58    
Precipitation  
Precipitation 0.00 in - - ()
Sea Level Pressure  
Sea Level Pressure 30.57 in    
Wind  
Wind Speed 7 mph (NE)    
Max Wind Speed 10 mph    
Max Gust Speed 16 mph    
Visibility 10 miles    
Events      
Averages and records for this station are not official NWS values.
T = Trace of Precipitation, MM = Missing Value Source: NWS Daily Summary

Daily Weather History Graph

Daily Weather History Graph

Search for Another Location

Airport or City:

Trip Planner

Search our weather history database for the weather conditions in past years. The results will help you decide how hot, cold, wet, or windy it might be!

Date:

Astronomy

Nov. 18, 2012 Rise Set
Actual Time 6:51 AM EST 4:48 PM EST
Civil Twilight 6:23 AM EST 5:17 PM EST
Nautical Twilight 5:50 AM EST 5:50 PM EST
Astronomical Twilight 5:19 AM EST 6:21 PM EST
Moon 11:17 AM EST (11/18) 10:05 PM EST (11/18)
Length of Visible Light 10h 54m
Length of Day
9h 56m
Waxing Crescent, 30% of the Moon is Illuminated
Nov 18
Waxing Crescent
Nov 20
First Quarter
Nov 28
Full
Dec 6
Last Quarter
Dec 13
New

Hourly Weather History & Observations

Time (EST) Temp. Windchill Dew Point Humidity Pressure Visibility Wind Dir Wind Speed Gust Speed Precip Events Conditions
12:09 AM 44.6 °F 41.4 °F 39.2 °F 81% 30.59 in 10.0 mi ENE 5.8 mph - N/A   Clear
12:31 AM 44.6 °F 40.7 °F 39.2 °F 81% 30.59 in 10.0 mi NE 6.9 mph - N/A   Clear
12:52 AM 44.6 °F 41.4 °F 39.2 °F 81% 30.58 in 10.0 mi NE 5.8 mph - N/A   Clear
1:13 AM 42.8 °F 40.1 °F 39.2 °F 87% 30.59 in 10.0 mi NE 4.6 mph - N/A   Clear
1:34 AM 42.8 °F 38.6 °F 39.2 °F 87% 30.59 in 10.0 mi NE 6.9 mph - N/A   Clear
1:56 AM 42.8 °F 38.6 °F 39.2 °F 87% 30.59 in 10.0 mi NE 6.9 mph - N/A   Clear
2:17 AM 42.8 °F 38.6 °F 39.2 °F 87% 30.59 in 10.0 mi NE 6.9 mph - N/A   Clear
2:38 AM 42.8 °F 38.6 °F 37.4 °F 81% 30.59 in 10.0 mi NE 6.9 mph - N/A   Clear
3:00 AM 42.8 °F 38.6 °F 37.4 °F 81% 30.58 in 10.0 mi NNE 6.9 mph - N/A   Clear
3:21 AM 42.8 °F 38.6 °F 37.4 °F 81% 30.58 in 10.0 mi NNE 6.9 mph - N/A   Clear
3:42 AM 42.8 °F 39.3 °F 37.4 °F 81% 30.57 in 10.0 mi NNE 5.8 mph - N/A   Clear
4:03 AM 41.0 °F 36.4 °F 37.4 °F 87% 30.57 in 10.0 mi NNE 6.9 mph - N/A   Clear
4:25 AM 41.0 °F 38.0 °F 37.4 °F 87% 30.59 in 10.0 mi NNE 4.6 mph - N/A   Clear
4:46 AM 41.0 °F 37.1 °F 37.4 °F 87% 30.60 in 10.0 mi NNE 5.8 mph - N/A   Clear
5:07 AM 41.0 °F 37.1 °F 35.6 °F 81% 30.60 in 10.0 mi NNE 5.8 mph - N/A   Clear
5:50 AM 41.0 °F 37.1 °F 35.6 °F 81% 30.60 in 10.0 mi NNE 5.8 mph - N/A   Clear
6:11 AM 41.0 °F 36.4 °F 35.6 °F 81% 30.59 in 10.0 mi NNE 6.9 mph - N/A   Clear
6:32 AM 41.0 °F 36.4 °F 35.6 °F 81% 30.59 in 10.0 mi NE 6.9 mph - N/A   Clear
6:54 AM 41.0 °F 35.8 °F 35.6 °F 81% 30.59 in 10.0 mi NE 8.1 mph - N/A   Clear
7:15 AM 41.0 °F 37.1 °F 35.6 °F 81% 30.60 in 10.0 mi NE 5.8 mph - N/A   Scattered Clouds
7:36 AM 41.0 °F 35.8 °F 35.6 °F 81% 30.61 in 10.0 mi NE 8.1 mph - N/A   Clear
7:57 AM 41.0 °F 35.8 °F 35.6 °F 81% 30.61 in 10.0 mi NNE 8.1 mph - N/A   Clear
8:18 AM 42.8 °F 38.0 °F 35.6 °F 76% 30.61 in 10.0 mi NE 8.1 mph - N/A   Clear
8:40 AM 42.8 °F 38.6 °F 35.6 °F 76% 30.61 in 10.0 mi NE 6.9 mph - N/A   Clear
9:01 AM 42.8 °F 38.6 °F 35.6 °F 76% 30.60 in 10.0 mi NE 6.9 mph - N/A   Clear
9:22 AM 44.6 °F 40.2 °F 35.6 °F 71% 30.61 in 10.0 mi NE 8.1 mph - N/A   Clear
9:43 AM 44.6 °F 40.2 °F 35.6 °F 71% 30.60 in 10.0 mi ENE 8.1 mph - N/A   Clear
10:05 AM 44.6 °F 39.2 °F 35.6 °F 71% 30.61 in 10.0 mi NE 10.4 mph 16.1 mph N/A   Clear
10:26 AM 46.4 °F 42.9 °F 35.6 °F 66% 30.61 in 10.0 mi NE 6.9 mph - N/A   Clear
10:47 AM 46.4 °F 41.9 °F 37.4 °F 71% 30.60 in 10.0 mi ENE 9.2 mph - N/A   Clear
11:08 AM 48.2 °F - 37.4 °F 66% 30.60 in 10.0 mi NE 6.9 mph - N/A   Clear
11:30 AM 50.0 °F - 37.4 °F 62% 30.59 in 10.0 mi NE 8.1 mph - N/A   Clear
11:51 AM 50.0 °F - 37.4 °F 62% 30.57 in 10.0 mi NE 5.8 mph - N/A   Clear
12:12 PM 51.8 °F - 37.4 °F 58% 30.57 in 10.0 mi NE 6.9 mph - N/A   Clear
12:33 PM 51.8 °F - 37.4 °F 58% 30.56 in 10.0 mi NE 9.2 mph - N/A   Scattered Clouds
12:55 PM 51.8 °F - 37.4 °F 58% 30.55 in 10.0 mi NNE 9.2 mph - N/A   Clear
1:16 PM 51.8 °F - 37.4 °F 58% 30.55 in 10.0 mi NE 6.9 mph - N/A   Clear
1:37 PM 51.8 °F - 37.4 °F 58% 30.54 in 10.0 mi NNE 9.2 mph - N/A   Clear
1:58 PM 51.8 °F - 37.4 °F 58% 30.54 in 10.0 mi NNE 9.2 mph - N/A   Clear
2:20 PM 51.8 °F - 37.4 °F 58% 30.54 in 10.0 mi North 10.4 mph - N/A   Clear
2:41 PM 51.8 °F - 37.4 °F 58% 30.54 in 10.0 mi North 6.9 mph - N/A   Clear
3:02 PM 51.8 °F - 37.4 °F 58% 30.53 in 10.0 mi NNE 9.2 mph - N/A   Mostly Cloudy
3:23 PM 51.8 °F - 37.4 °F 58% 30.54 in 10.0 mi NNE 4.6 mph - N/A   Overcast
3:45 PM 51.8 °F - 39.2 °F 62% 30.54 in 10.0 mi NNE 4.6 mph - N/A   Overcast
4:06 PM 50.0 °F - 39.2 °F 66% 30.54 in 10.0 mi NNE 5.8 mph - N/A   Overcast
4:48 PM 50.0 °F - 37.4 °F 62% 30.53 in 10.0 mi NNE 6.9 mph - N/A   Overcast
5:10 PM 50.0 °F - 37.4 °F 62% 30.53 in 10.0 mi NE 6.9 mph - N/A   Overcast
5:31 PM 50.0 °F - 37.4 °F 62% 30.53 in 10.0 mi NNE 6.9 mph - N/A   Overcast
5:52 PM 50.0 °F - 37.4 °F 62% 30.53 in 10.0 mi NE 8.1 mph - N/A   Overcast
6:13 PM 50.0 °F - 37.4 °F 62% 30.54 in 10.0 mi NNE 5.8 mph - N/A   Overcast
7:17 PM 48.2 °F - 37.4 °F 66% 30.54 in 10.0 mi NE 8.1 mph - N/A   Overcast
7:38 PM 48.2 °F - 37.4 °F 66% 30.55 in 10.0 mi NE 9.2 mph - N/A   Mostly Cloudy
7:59 PM 48.2 °F - 39.2 °F 71% 30.54 in 10.0 mi NNE 6.9 mph - N/A   Overcast
8:21 PM 46.4 °F 41.9 °F 37.4 °F 71% 30.54 in 10.0 mi NNE 9.2 mph - N/A   Overcast
9:46 PM 46.4 °F 42.9 °F 37.4 °F 71% 30.52 in 10.0 mi NNE 6.9 mph - N/A   Clear
10:07 PM 46.4 °F 42.9 °F 37.4 °F 71% 30.52 in 10.0 mi NNE 6.9 mph - N/A   Clear
10:50 PM 44.6 °F 41.4 °F 37.4 °F 76% 30.51 in 10.0 mi NE 5.8 mph - N/A   Clear
11:11 PM 44.6 °F 39.7 °F 37.4 °F 76% 30.50 in 10.0 mi NNE 9.2 mph - N/A   Clear
11:32 PM 44.6 °F 40.7 °F 37.4 °F 76% 30.50 in 10.0 mi NNE 6.9 mph - N/A   Clear